Погода в Филимоновке

Россия / Томская область     57°10′48″N   85°49′13″E
темп.,
°C
ветер,
м/с
пор.,
м/с
влажн.,
%
обл.,
%
осадки,
мм/ч
давл.,
гПа
погр.,
м
4 марта, чт
чт401:00−14ю389695 0.1 1020238
04:00−14ю3119493 0.0 1019393
07:00−13ю4129196 0.0 1019523
10:00−12ююз51291100 0.1 1017630
13:00−9ююз61291100 0.4 1016761
16:00−6ююз61290100 0.3 1015838
19:00−6ююз51293100 0.6 1014770
22:00−5ююз51292100 0.3 1013827
5 марта, пт
пт501:00−5ююз51292100 0.4 1012798
04:00−5ююз51389100 0.2 1010679
07:00−7ююз51390100 0.3 1009643
10:00−5ююз61491100 0.2 1008793
13:00−4ююз61389100 0.3 1007793
16:00−4ююз61292100 0.3 10061042
19:00−3юз61491100 0.8 10091124
22:00−6юз6148598 0.1 1011926
6 марта, сб
сб601:00−6юз5129399 0.3 10121004
04:00−7юз4129295 0.2 1012729
07:00−6юз4129298 0.3 1012803
10:00−4юз51192100 0.4 1011907
13:00−3юз61192100 0.8 1010944
16:00−4ююз61193100 0.6 1009933
19:00−5юз51192100 1.3 1009991
22:00−5юз51390100 0.1 1008817
7 марта, вс
вс701:00−5ююз51392100 0.2 1007763
04:00−4юз61392100 0.4 10051039
07:00−4зюз61382100 0.6 10081080
10:00−8зюз5128422 0.0 1011770
13:00−6зюз5117715 0.0 1014926
16:00−5юз487977 0.0 1013823
19:00−7юв129089 0.0 101226
22:00−6юв3896100 1.5 1009378
8 марта, пн
пн801:00−2юз51294100 2.6 1008798
04:00−3ююз51293100 0.4 1005752
07:00−2юз61392100 0.8 1005896
10:00−1юз71490100 0.1 10051059
13:00−3зсз61094100 1.2 1008643
16:00−5зсз4787100 0.2 1011776
19:00−8зсз2294100 0.3 101428
22:00−11зсз2295100 0.0 101721